Date String (YYYY-MM-DD hh:mm:ss) UTC,Instrument flags,absolute air pressure of the measurement (hPa),sample flow rate (lpm),inlet stack bypass flow (lpm),air temperature of the measurement (°C),ambient temperature measured by the external sensor (°C),aerosol sample conditioner tube jacket temperature (°C),OPC LED temperature (°C),internal box temperature (°C),relative humidity of the measurement (%),span deviation,mass concentration of particles derived from Lorenz-Mie calculation of OPC scattering (μg/m³),mass concentration of particles derived from Lorenz-Mie calculation of OPC scattering (μg/m³),mass concentration of particles derived from Lorenz-Mie calculation of OPC scattering (μg/m³)
DateTimeUTC,F1_M11,P_M11,Q1_M11,Q2_M11,T1_M11,T2_M11,T3_M11,T4_M11,T5_M11,U1_M11,ZSPAN_M11,X0_M11,X2_M11,X1_M11
2023-10-01 21:00:00,SystemResetWarning,0824.9,5.00,000.00,028.1,025.2,000.0,036.5,029.7,14.9,0000.0,0006.40,0003.50,0003.14
2023-10-01 21:01:00,SystemResetWarning,0824.9,5.01,000.00,028.0,025.7,000.0,036.5,029.8,14.9,0000.0,0005.89,0003.50,0003.14
2023-10-01 21:02:00,SystemResetWarning,0824.9,5.00,000.00,028.1,026.1,000.0,036.5,029.8,14.9,0000.0,0006.13,0003.50,0003.13
2023-10-01 21:03:00,SystemResetWarning,0824.9,4.99,000.00,028.1,026.4,000.0,036.5,029.9,15.0,0000.0,0006.21,0003.52,0003.13
2023-10-01 21:04:00,SystemResetWarning,0824.9,4.99,000.00,028.2,026.7,000.0,036.5,030.0,14.8,0000.0,0007.57,0003.51,0003.12
2023-10-01 21:05:00,SystemResetWarning,0824.9,5.02,000.00,028.2,027.0,000.0,036.6,030.1,14.3,0000.0,0007.53,0003.49,0003.10
2023-10-01 21:06:00,SystemResetWarning,0824.9,5.00,000.00,028.2,026.6,000.0,036.6,030.1,14.4,0000.0,0007.28,0003.49,0003.08
2023-10-01 21:07:00,SystemResetWarning,0824.9,4.98,000.00,028.2,024.9,000.0,036.5,029.9,14.5,0000.0,0007.07,0003.43,0003.04
2023-10-01 21:08:00,SystemResetWarning,0824.8,5.02,000.00,028.1,024.4,000.0,036.4,029.8,14.6,0000.0,0007.04,0003.41,0003.02
2023-10-01 21:09:00,SystemResetWarning,0824.9,4.99,000.00,028.1,024.7,000.0,036.4,029.7,14.4,0000.0,0007.93,0003.41,0003.00
2023-10-01 21:10:00,SystemResetWarning,0824.9,4.99,000.00,028.0,025.1,000.0,036.5,029.7,14.6,0000.0,0008.16,0003.40,0002.99
2023-10-01 21:11:00,SystemResetWarning,0824.9,5.01,000.00,028.0,025.5,000.0,036.5,029.7,14.4,0000.0,0008.18,0003.39,0002.98
2023-10-01 21:12:00,SystemResetWarning,0824.9,5.01,000.00,028.0,025.9,000.0,036.5,029.8,14.3,0000.0,0008.22,0003.40,0002.96
2023-10-01 21:13:00,SystemResetWarning,0824.9,5.00,000.00,028.1,026.3,000.0,036.5,029.9,14.8,0000.0,0008.18,0003.42,0002.94
2023-10-01 21:14:00,SystemResetWarning,0824.9,4.98,000.00,028.1,026.6,000.0,036.5,030.0,15.1,0000.0,0008.10,0003.39,0002.90
2023-10-01 21:15:00,SystemResetWarning,0824.9,4.99,000.00,028.2,026.9,000.0,036.5,030.0,14.4,0000.0,0007.22,0003.38,0002.89
2023-10-01 21:16:00,SystemResetWarning,0824.8,4.99,000.00,028.2,026.7,000.0,036.5,030.1,14.0,0000.0,0007.31,0003.39,0002.87
2023-10-01 21:17:00,SystemResetWarning,0824.8,5.00,000.00,028.2,025.0,000.0,036.5,029.9,14.2,0000.0,0007.66,0003.41,0002.87
2023-10-01 21:18:00,SystemResetWarning,0824.9,5.00,000.00,028.1,024.3,000.0,036.4,029.7,14.6,0000.0,0007.74,0003.43,0002.87
2023-10-01 21:19:00,SystemResetWarning,0824.9,5.02,000.00,028.0,024.7,000.0,036.4,029.7,14.8,0000.0,0008.44,0003.48,0002.85
2023-10-01 21:20:00,SystemResetWarning,0824.8,4.99,000.00,028.0,025.0,000.0,036.4,029.6,14.9,0000.0,0008.05,0003.50,0002.84
2023-10-01 21:21:00,SystemResetWarning,0824.8,4.99,000.00,028.0,025.5,000.0,036.4,029.7,15.2,0000.0,0008.02,0003.52,0002.82
2023-10-01 21:22:00,SystemResetWarning,0824.8,5.00,000.00,028.0,025.9,000.0,036.4,029.7,15.2,0000.0,0008.39,0003.53,0002.80
2023-10-01 21:23:00,SystemResetWarning,0824.7,5.00,000.00,028.0,026.2,000.0,036.5,029.8,15.0,0000.0,0008.38,0003.54,0002.78
2023-10-01 21:24:00,SystemResetWarning,0824.7,5.01,000.00,028.1,026.6,000.0,036.5,029.9,15.1,0000.0,0009.06,0003.53,0002.78
2023-10-01 21:25:00,SystemResetWarning,0824.7,5.01,000.00,028.1,026.9,000.0,036.5,030.0,15.4,0000.0,0009.46,0003.55,0002.77
2023-10-01 21:26:00,SystemResetWarning,0824.7,4.99,000.00,028.2,026.8,000.0,036.5,030.1,15.4,0000.0,0009.94,0003.59,0002.76
2023-10-01 21:27:00,SystemResetWarning,0824.7,4.98,000.00,028.2,025.3,000.0,036.5,029.9,14.9,0000.0,0010.14,0003.62,0002.76
2023-10-01 21:28:00,SystemResetWarning,0824.8,5.01,000.00,028.1,024.4,000.0,036.4,029.8,14.7,0000.0,0009.95,0003.58,0002.75
2023-10-01 21:29:00,SystemResetWarning,0824.7,5.01,000.00,028.0,024.6,000.0,036.4,029.7,14.2,0000.0,0009.89,0003.58,0002.75
2023-10-01 21:30:00,SystemResetWarning,0824.7,5.00,000.00,028.0,025.0,000.0,036.4,029.6,14.0,0000.0,0009.38,0003.54,0002.75
2023-10-01 21:31:00,SystemResetWarning,0824.7,5.00,000.00,028.0,025.4,000.0,036.4,029.6,14.3,0000.0,0009.15,0003.53,0002.74
2023-10-01 21:32:00,SystemResetWarning,0824.7,5.01,000.00,028.0,025.9,000.0,036.4,029.7,13.8,0000.0,0009.14,0003.55,0002.73
2023-10-01 21:33:00,SystemResetWarning,0824.7,4.99,000.00,028.0,026.2,000.0,036.4,029.8,13.9,0000.0,0008.91,0003.53,0002.74
2023-10-01 21:34:00,SystemResetWarning,0824.7,5.00,000.00,028.1,026.6,000.0,036.5,029.9,14.0,0000.0,0008.91,0003.53,0002.76
2023-10-01 21:35:00,SystemResetWarning,0824.7,5.00,000.00,028.1,026.8,000.0,036.5,030.0,14.0,0000.0,0008.35,0003.54,0002.77
2023-10-01 21:36:00,SystemResetWarning,0824.8,5.00,000.00,028.2,027.1,000.0,036.5,030.1,13.6,0000.0,0007.86,0003.53,0002.79
2023-10-01 21:37:00,SystemResetWarning,0824.8,4.99,000.00,028.2,026.5,000.0,036.5,030.1,13.7,0000.0,0007.52,0003.50,0002.79
2023-10-01 21:38:00,SystemResetWarning,0824.8,4.99,000.00,028.2,024.9,000.0,036.5,029.9,13.9,0000.0,0007.65,0003.50,0002.80
2023-10-01 21:39:00,SystemResetWarning,0824.8,5.01,000.00,028.1,024.5,000.0,036.4,029.8,14.0,0000.0,0008.47,0003.52,0002.81
2023-10-01 21:40:00,SystemResetWarning,0824.8,5.01,000.00,028.1,024.8,000.0,036.4,029.7,13.8,0000.0,0008.99,0003.55,0002.82
2023-10-01 21:41:00,SystemResetWarning,0824.8,5.00,000.00,028.0,025.2,000.0,036.4,029.7,13.5,0000.0,0009.25,0003.58,0002.83
2023-10-01 21:42:00,SystemResetWarning,0824.8,5.00,000.00,028.0,025.7,000.0,036.4,029.7,13.6,0000.0,0009.22,0003.58,0002.84
2023-10-01 21:43:00,SystemResetWarning,0824.8,5.00,000.00,028.1,026.1,000.0,036.5,029.8,14.0,0000.0,0009.19,0003.57,0002.84
2023-10-01 21:44:00,SystemResetWarning,0824.7,4.99,000.00,028.1,026.4,000.0,036.5,029.9,14.2,0000.0,0009.69,0003.59,0002.84
2023-10-01 21:45:00,SystemResetWarning,0824.7,5.00,000.00,028.1,026.7,000.0,036.5,030.0,14.2,0000.0,0010.01,0003.60,0002.84
2023-10-01 21:46:00,SystemResetWarning,0824.7,5.01,000.00,028.2,026.9,000.0,036.5,030.1,14.5,0000.0,0010.10,0003.59,0002.82
2023-10-01 21:47:00,SystemResetWarning,0824.7,4.98,000.00,028.2,025.7,000.0,036.5,030.0,14.7,0000.0,0010.12,0003.57,0002.80
2023-10-01 21:48:00,SystemResetWarning,0824.7,5.01,000.00,028.1,024.4,000.0,036.4,029.8,14.2,0000.0,0010.18,0003.56,0002.78
2023-10-01 21:49:00,SystemResetWarning,0824.7,5.01,000.00,028.1,024.6,000.0,036.4,029.7,14.3,0000.0,0010.37,0003.50,0002.77
2023-10-01 21:50:00,SystemResetWarning,0824.7,5.00,000.00,028.0,024.9,000.0,036.4,029.6,14.3,0000.0,0009.44,0003.48,0002.77
2023-10-01 21:51:00,SystemResetWarning,0824.7,4.99,000.00,028.0,025.3,000.0,036.4,029.7,14.2,0000.0,0008.92,0003.46,0002.74
2023-10-01 21:52:00,SystemResetWarning,0824.7,5.00,000.00,028.0,025.8,000.0,036.4,029.8,14.7,0000.0,0008.66,0003.42,0002.73
2023-10-01 21:53:00,SystemResetWarning,0824.7,5.01,000.00,028.0,026.2,000.0,036.5,029.9,14.8,0000.0,0008.64,0003.40,0002.71
2023-10-01 21:54:00,SystemResetWarning,0824.7,5.00,000.00,028.1,026.5,000.0,036.5,029.9,14.5,0000.0,0008.56,0003.39,0002.69
2023-10-01 21:55:00,SystemResetWarning,0824.7,5.00,000.00,028.1,026.8,000.0,036.5,030.0,14.2,0000.0,0008.15,0003.36,0002.68
2023-10-01 21:56:00,SystemResetWarning,0824.7,4.99,000.00,028.2,026.5,000.0,036.5,030.1,14.5,0000.0,0008.38,0003.39,0002.68
2023-10-01 21:57:00,SystemResetWarning,0824.7,5.00,000.00,028.1,024.9,000.0,036.4,029.9,14.7,0000.0,0008.91,0003.39,0002.67
2023-10-01 21:58:00,SystemResetWarning,0824.7,5.00,000.00,028.1,024.3,000.0,036.4,029.7,15.1,0000.0,0009.27,0003.44,0002.66
2023-10-01 21:59:00,SystemResetWarning,0824.7,5.00,000.00,028.0,024.6,000.0,036.4,029.7,15.0,0000.0,0009.16,0003.43,0002.66
